Location: Veyrier
(46.1830°N, 6.2000°E)
Time: 06:31:14
(UTC+02:00)

Envisat - Visible Passes

Search period start: 25 September 2020 00:00
Search period end: 05 October 2020 00:00
Orbit: 764 x 766 km, 98.1° (Epoch: 24 September)

Date Brightness Start Highest point End Pass type
(mag) Time Alt. Az. Time Alt. Az. Time Alt. Az.
25 Sep 6.2 20:08:22 10° SW 20:11:35 17° W 20:14:49 10° NW visible
26 Sep 6.0 06:34:13 10° NE 06:37:50 19° E 06:41:26 10° SE visible
28 Sep 5.2 06:58:58 10° NNE 07:03:31 32° E 07:08:02 10° SSE visible
28 Sep 6.0 19:56:19 10° SW 20:00:05 21° W 20:03:54 10° NW visible
29 Sep 6.2 06:23:23 10° NE 06:26:21 15° E 06:29:18 10° SE visible
30 Sep 6.5 20:23:53 10° WSW 20:25:51 12° W 20:27:50 10° WNW visible
01 Oct 5.6 06:47:50 10° NE 06:52:04 26° E 06:56:16 10° SSE visible
01 Oct 5.6 19:44:25 10° SSW 19:48:37 26° W 19:52:51 10° NW visible
02 Oct 6.5 06:12:51 10° ENE 06:14:50 12° E 06:16:47 10° ESE visible
03 Oct 6.3 20:11:23 10° SW 20:14:20 15° W 20:17:19 10° NW visible
04 Oct 5.9 06:36:47 10° NE 06:40:36 21° E 06:44:22 10° SE visible
04 Oct 5.2 19:32:39 10° SSW 19:37:10 32° W 19:41:43 10° NNW visible
